CDT,Max TemperatureF,Mean TemperatureF,Min TemperatureF,Max Dew PointF,MeanDew PointF,Min DewpointF,Max Humidity, Mean Humidity, Min Humidity, Max Sea Level PressureIn, Mean Sea Level PressureIn, Min Sea Level PressureIn, Max VisibilityMiles, Mean VisibilityMiles, Min VisibilityMiles, Max Wind SpeedMPH, Mean Wind SpeedMPH, Max Gust SpeedMPH,PrecipitationIn, CloudCover, Events, WindDirDegrees
2012-10-1,72,62,52,54,50,46,89,65,41,30.13,30.01,29.90,10,10,10,38,13,47,T,1,,342
2012-10-2,75,61,47,50,46,40,93,65,36,30.16,29.99,29.86,10,10,10,16,8,21,0.00,0,,214
2012-10-3,82,68,53,54,50,48,83,57,31,29.86,29.82,29.75,10,10,10,23,15,28,0.00,0,,177
2012-10-4,62,54,45,54,39,31,78,59,39,30.29,30.12,29.83,10,10,6,36,17,48,0.00,4,,31
2012-10-5,65,55,45,41,39,33,83,63,43,30.19,30.13,30.04,10,10,10,24,11,30,0.00,2,,87
2012-10-6,48,43,38,31,28,25,65,57,49,30.34,30.23,30.17,10,10,10,23,12,26,0.00,8,,72
2012-10-7,47,40,33,32,31,28,89,74,58,30.33,30.26,30.17,10,10,10,14,8,17,0.00,5,,157
2012-10-8,72,52,32,42,35,29,89,59,29,30.21,30.04,29.87,10,10,10,24,15,31,0.00,0,,194
2012-10-9,85,65,44,44,36,19,86,48,9,30.07,29.87,29.78,10,10,10,26,12,31,0.00,0,,310
2012-10-10,62,50,38,46,39,35,86,67,47,30.24,30.15,30.05,10,10,10,21,11,24,0.00,3,,106
2012-10-11,82,64,46,61,55,44,100,72,43,30.14,30.03,29.91,10,9,4,23,12,28,T,2,,198
2012-10-12,69,59,48,62,51,37,93,77,61,30.28,30.08,29.93,10,10,7,25,13,33,0.01,5,Rain-Thunderstorm,86
2012-10-13,76,66,55,63,47,21,93,53,13,29.95,29.83,29.72,10,10,10,36,18,45,0.00,2,Thunderstorm,225
2012-10-14,75,63,50,41,38,35,63,43,23,30.23,30.09,29.91,10,10,10,22,9,28,0.00,0,,299
2012-10-15,82,65,48,41,37,34,71,45,19,30.12,29.97,29.80,10,10,10,30,16,36,0.00,0,,205
2012-10-16,83,65,46,46,38,32,77,48,18,29.83,29.65,29.48,10,10,10,22,12,29,0.00,0,,243
2012-10-17,69,59,48,36,29,23,42,31,20,29.86,29.66,29.42,10,10,10,23,14,38,0.00,0,,2
2012-10-18,68,52,35,27,24,21,59,40,20,30.08,30.01,29.93,10,10,10,13,6,16,0.00,0,,62
2012-10-19,77,59,41,39,31,23,49,35,21,30.04,29.90,29.77,10,10,10,18,9,24,0.00,0,,180
2012-10-20,83,62,40,41,32,26,71,42,13,29.75,29.69,29.65,10,10,10,17,8,22,0.00,0,,231
2012-10-21,88,71,53,36,33,28,46,30,14,29.77,29.67,29.61,10,10,10,31,14,39,0.00,0,,224
2012-10-22,85,71,56,42,36,30,47,31,14,29.89,29.74,29.67,10,10,10,24,13,30,0.00,0,,215
2012-10-23,90,70,49,46,36,29,61,36,11,29.91,29.76,29.70,10,10,10,25,15,31,0.00,0,,210
2012-10-24,88,72,55,59,51,43,90,57,23,29.90,29.69,29.57,10,10,6,32,17,38,0.00,0,,196
2012-10-25,67,50,33,58,36,27,82,62,41,30.28,30.00,29.56,10,10,4,36,19,45,0.00,3,,1
2012-10-26,49,39,29,27,23,18,78,55,31,30.45,30.38,30.28,10,10,10,21,9,26,0.00,1,,19
2012-10-27,56,42,27,23,21,19,75,51,26,30.37,30.25,30.11,10,10,10,20,11,24,0.00,0,,163
2012-10-28,64,48,32,25,23,19,66,43,19,30.24,30.17,30.07,10,10,10,23,13,28,0.00,0,,185
2012-10-29,70,53,36,34,29,25,59,42,25,30.18,30.10,30.01,10,10,10,21,13,25,0.00,0,,177
2012-10-30,80,59,38,36,32,28,76,46,16,30.11,30.01,29.93,10,9,1,12,5,15,0.00,0,,284
2012-10-31,81,62,43,37,31,28,62,39,15,30.11,30.01,29.94,10,9,3,16,8,22,0.00,0,,195